Weather History for Kulusuk, Greenland

Change the Weather History Date:

Friday, September 27, 2013

  Actual Average Record
Temperature  
Mean Temperature 32 °F -  
Max Temperature 33 °F 33 °F 50 °F (2003)
Min Temperature 32 °F 30 °F 30 °F (2005)
Degree Days  
Heating Degree Days 32    
Moisture  
Dew Point 26 °F    
Average Humidity 77    
Maximum Humidity 87    
Minimum Humidity 54    
Precipitation  
Precipitation 0.00 in - - ()
Sea Level Pressure  
Sea Level Pressure 29.92 in    
Wind  
Wind Speed 3 mph ()    
Max Wind Speed 6 mph    
Max Gust Speed -    
Visibility 6.5 miles    
Events Rain , Snow    
Averages and records for this station are not official NWS values.
T = Trace of Precipitation, MM = Missing Value Source: Averaged Metar Reports

Daily Weather History Graph

Daily Weather History Graph

Search for Another Location

Airport:

Trip Planner

Search our weather history database for the weather conditions in past years. The results will help you decide how hot, cold, wet, or windy it might be!

Date:

Astronomy

Sep. 27, 2013 Rise Set
Actual Time 6:26 AM WGST 6:10 PM WGST
Civil Twilight 5:36 AM WGST 7:00 PM WGST
Nautical Twilight 4:35 AM WGST 8:00 PM WGST
Astronomical Twilight 3:27 AM WGST 9:08 PM WGST
Moon 9:59 PM WGST (9/27) 3:54 PM WGST (9/27)
Length of Visible Light 13h 23m
Length of Day
11h 43m
Last Quarter, 46% of the Moon is Illuminated
Sep 27
Last Quarter
Oct 4
New
Oct 11
First Quarter
Oct 18
Full
Oct 26
Last Quarter

Hourly Weather History & Observations

Time (WGST) Temp. Windchill Dew Point Humidity Pressure Visibility Wind Dir Wind Speed Gust Speed Precip Events Conditions
12:20 AM 32.0 °F 26.4 °F 26.6 °F 80% 29.95 in 6.2 mi SW 5.8 mph - N/A   Overcast
12:50 AM 32.0 °F 27.5 °F 28.4 °F 87% 29.95 in 6.2 mi South 4.6 mph - N/A Rain , Snow Light Rain Showers
1:00 AM 32 °F - 27 °F 73% 29.95 in 14 mi SSW 4.6 mph - - Snow Snow
1:20 AM 32.0 °F 28.7 °F 28.4 °F 87% 29.92 in 6.2 mi SSW 3.5 mph - N/A Snow Light Snow Showers
1:50 AM 32.0 °F 26.4 °F 26.6 °F 80% 29.92 in 6.2 mi SW 5.8 mph - N/A   Mostly Cloudy
2:20 AM 32.0 °F 26.4 °F 26.6 °F 80% 29.92 in 6.2 mi WSW 5.8 mph - N/A   Mostly Cloudy
2:50 AM 32.0 °F 26.4 °F 26.6 °F 80% 29.92 in 6.2 mi SW 5.8 mph - N/A   Mostly Cloudy
3:20 AM 32.0 °F 28.7 °F 26.6 °F 80% 29.92 in 6.2 mi WSW 3.5 mph - N/A   Overcast
3:50 AM 32.0 °F - 26.6 °F 80% 29.92 in 6.2 mi SW 2.3 mph - N/A   Overcast
4:00 AM 32 °F - 25 °F 68% 29.93 in 22 mi SW 2.3 mph - -   Overcast
4:20 AM 32.0 °F 28.7 °F 26.6 °F 80% 29.92 in 6.2 mi West 3.5 mph - N/A   Mostly Cloudy
4:50 AM 32.0 °F - 26.6 °F 80% 29.92 in 6.2 mi West 2.3 mph - N/A   Mostly Cloudy
5:20 AM 32.0 °F - 26.6 °F 80% 29.92 in 6.2 mi SW 2.3 mph - N/A   Mostly Cloudy
5:50 AM 32.0 °F - 26.6 °F 80% 29.92 in 6.2 mi South 2.3 mph - N/A   Mostly Cloudy
6:20 AM 32.0 °F - 26.6 °F 80% 29.92 in 6.2 mi SSW 2.3 mph - N/A   Mostly Cloudy
6:50 AM 32.0 °F - 26.6 °F 80% 29.92 in 6.2 mi South 1.2 mph - N/A   Overcast
7:00 AM 32 °F - 26 °F 70% 29.93 in 22 mi SW 1.2 mph - -   Overcast
7:20 AM 32.0 °F - 26.6 °F 80% 29.92 in 6.2 mi West 2.3 mph - N/A   Overcast
7:50 AM 32.0 °F - 26.6 °F 80% 29.92 in 6.2 mi SW 1.2 mph - N/A   Overcast
8:20 AM 32.0 °F - 26.6 °F 80% 29.92 in 6.2 mi WNW 2.3 mph - N/A   Mostly Cloudy
8:50 AM 32.0 °F 28.7 °F 26.6 °F 80% 29.92 in 6.2 mi North 3.5 mph - N/A   Mostly Cloudy
9:50 AM 32.0 °F - 26.6 °F 80% 29.92 in 6.2 mi West 1.2 mph - N/A   Mostly Cloudy
10:00 AM 33 °F - 25 °F 62% 29.92 in 22 mi West 1.2 mph - -   Mostly Cloudy
10:50 AM 33.8 °F 30.8 °F 26.6 °F 75% 29.89 in 6.2 mi NNW 3.5 mph - N/A   Mostly Cloudy
11:50 AM 33.8 °F - 24.8 °F 70% 29.89 in 6.2 mi NNW 2.3 mph - N/A   Mostly Cloudy
12:50 PM 33.8 °F 28.6 °F 24.8 °F 70% 29.89 in 6.2 mi NNW 5.8 mph - N/A   Mostly Cloudy
1:00 PM 33 °F - 23 °F 54% 29.90 in 22 mi NNW 5.8 mph - -   Mostly Cloudy
4:00 PM - - - %  in - Calm Calm - -  
7:00 PM - - - %  in - Calm Calm - -  
10:00 PM - - - %  in - Calm Calm - -